Weather History for Grants-Milan, NM

Change the Weather History Date:

Friday, February 28, 2014

  Actual Average Record
Temperature  
Mean Temperature 40 °F -  
Max Temperature 59 °F 54 °F 70 °F (1972)
Min Temperature 22 °F 19 °F -5 °F (1962)
Degree Days  
Heating Degree Days 24    
Moisture  
Dew Point 21 °F    
Average Humidity 46    
Maximum Humidity 78    
Minimum Humidity 14    
Precipitation  
Precipitation 0.00 in - - ()
Sea Level Pressure  
Sea Level Pressure 29.98 in    
Wind  
Wind Speed 6 mph (WNW)    
Max Wind Speed 17 mph    
Max Gust Speed 28 mph    
Visibility 10 miles    
Events      
Averages and records for this station are not official NWS values.
T = Trace of Precipitation, MM = Missing Value Source: NWS Daily Summary

Daily Weather History Graph

Daily Weather History Graph

Search for Another Location

Airport:

Trip Planner

Search our weather history database for the weather conditions in past years. The results will help you decide how hot, cold, wet, or windy it might be!

Date:

Astronomy

Feb. 28, 2014 Rise Set
Actual Time 6:42 AM MST 6:06 PM MST
Civil Twilight 6:16 AM MST 6:31 PM MST
Nautical Twilight 5:47 AM MST 7:01 PM MST
Astronomical Twilight 5:18 AM MST 7:30 PM MST
Moon 5:58 AM MST (2/28) 5:46 PM MST (2/28)
Length of Visible Light 12h 15m
Length of Day
11h 24m
Waning Crescent, 0% of the Moon is Illuminated
Feb 28
Waning Crescent
Mar 1
New
Mar 8
First Quarter
Mar 16
Full
Mar 23
Last Quarter

Hourly Weather History & Observations

Time (MST) Temp. Windchill Dew Point Humidity Pressure Visibility Wind Dir Wind Speed Gust Speed Precip Events Conditions
12:15 AM 32.2 °F 23.8 °F 21.0 °F 63% 29.95 in 10.0 mi NW 10.4 mph 17.3 mph N/A   Clear
12:35 AM 31.5 °F 22.9 °F 21.0 °F 65% 29.95 in 10.0 mi NW 10.4 mph 17.3 mph N/A   Clear
12:55 AM 31.5 °F 26.8 °F 20.1 °F 63% 29.96 in 10.0 mi WNW 4.6 mph - N/A   Clear
1:15 AM 28.8 °F 22.6 °F 19.4 °F 68% 29.96 in 10.0 mi WNW 5.8 mph - N/A   Clear
1:35 AM 32.0 °F 24.2 °F 20.8 °F 63% 29.96 in 10.0 mi West 9.2 mph - N/A   Clear
1:55 AM 32.0 °F 26.4 °F 21.0 °F 64% 29.96 in 10.0 mi West 5.8 mph - N/A   Clear
2:15 AM 30.2 °F 26.7 °F 20.1 °F 66% 29.96 in 10.0 mi NNW 3.5 mph - N/A   Clear
2:35 AM 33.6 °F 26.8 °F 19.9 °F 57% 29.96 in 10.0 mi North 8.1 mph - N/A   Clear
3:00 AM 31.3 °F 27.9 °F 18.1 °F 58% 29.97 in 10.0 mi WSW 3.5 mph - N/A   Clear
3:15 AM 26.1 °F 20.5 °F 18.5 °F 73% 29.98 in 10.0 mi SW 4.6 mph - N/A   Clear
3:35 AM 28.9 °F - 19.0 °F 67% 29.98 in 10.0 mi Calm Calm - N/A   Clear
3:55 AM 27.9 °F 21.5 °F 18.7 °F 68% 29.98 in 10.0 mi West 5.8 mph - N/A   Clear
4:15 AM 29.3 °F 22.3 °F 18.7 °F 65% 29.97 in 10.0 mi WNW 6.9 mph - N/A   Clear
4:35 AM 33.3 °F 25.1 °F 20.1 °F 59% 29.97 in 10.0 mi West 10.4 mph - N/A   Clear
4:55 AM 35.1 °F 27.9 °F 21.9 °F 59% 29.98 in 10.0 mi West 9.2 mph - N/A   Clear
5:15 AM 29.8 °F 23.9 °F 18.3 °F 62% 29.98 in 10.0 mi NW 5.8 mph - N/A   Clear
5:35 AM 29.3 °F 25.6 °F 18.5 °F 64% 29.99 in 10.0 mi WNW 3.5 mph - N/A   Clear
5:55 AM 28.0 °F - 18.5 °F 67% 30.00 in 10.0 mi Calm Calm - N/A   Clear
6:15 AM 25.9 °F - 17.8 °F 71% 30.01 in 10.0 mi Calm Calm - N/A   Clear
6:35 AM 22.6 °F - 16.7 °F 78% 30.01 in 10.0 mi Calm Calm - N/A   Clear
6:55 AM 23.5 °F - 17.1 °F 76% 30.01 in 10.0 mi Calm Calm - N/A   Clear
7:15 AM 25.7 °F - 18.9 °F 75% 30.02 in 10.0 mi Calm Calm - N/A   Clear
7:40 AM 30.7 °F - 21.6 °F 69% 30.03 in 10.0 mi Calm Calm - N/A   Clear
7:55 AM 35.6 °F - 23.7 °F 62% 30.03 in 10.0 mi Calm Calm - N/A   Clear
8:15 AM 36.7 °F 32.9 °F 23.0 °F 58% 30.04 in 10.0 mi WNW 4.6 mph - N/A   Clear
8:35 AM 39.6 °F 34.7 °F 24.4 °F 55% 30.05 in 10.0 mi NNW 6.9 mph - N/A   Clear
8:55 AM 42.4 °F 38.1 °F 27.9 °F 56% 30.04 in 10.0 mi NNE 6.9 mph - N/A   Clear
9:15 AM 45.0 °F 43.5 °F 29.8 °F 55% 30.04 in 10.0 mi NW 3.5 mph - N/A   Scattered Clouds
9:35 AM 46.2 °F 44.1 °F 30.0 °F 53% 30.03 in 10.0 mi NE 4.6 mph - N/A   Clear
9:55 AM 46.6 °F - 30.2 °F 53% 30.03 in 10.0 mi Calm Calm - N/A   Clear
10:15 AM 46.8 °F - 29.7 °F 51% 30.03 in 10.0 mi ENE 3.5 mph - N/A   Clear
10:35 AM 47.5 °F - 29.1 °F 49% 30.02 in 10.0 mi Calm Calm - N/A   Clear
10:55 AM 49.3 °F - 28.4 °F 45% 30.01 in 10.0 mi East 3.5 mph - N/A   Clear
11:15 AM 50.2 °F - 28.0 °F 42% 30.02 in 10.0 mi NW 4.6 mph - N/A   Clear
11:35 AM 52.3 °F - 25.3 °F 35% 30.02 in 10.0 mi Calm Calm - N/A   Clear
11:55 AM 55.4 °F - 20.7 °F 26% 29.99 in 10.0 mi WSW 6.9 mph - N/A   Mostly Cloudy
12:15 PM 55.9 °F - 9.1 °F 15% 29.98 in 10.0 mi WNW 15.0 mph 24.2 mph N/A   Scattered Clouds
12:35 PM 55.6 °F - 9.7 °F 16% 29.99 in 10.0 mi WNW 12.7 mph 20.7 mph N/A   Mostly Cloudy
12:55 PM 55.6 °F - 9.0 °F 16% 29.98 in 10.0 mi West 17.3 mph 25.3 mph N/A   Overcast
1:15 PM 57.2 °F - 7.5 °F 14% 29.97 in 10.0 mi West 16.1 mph 26.5 mph N/A   Overcast
1:35 PM 56.7 °F - 9.3 °F 15% 29.97 in 10.0 mi West 16.1 mph 27.6 mph N/A   Overcast
1:55 PM 56.7 °F - 13.5 °F 18% 29.97 in 10.0 mi WNW 10.4 mph 21.9 mph N/A   Mostly Cloudy
2:15 PM 57.9 °F - 17.1 °F 20% 29.97 in 10.0 mi WNW 13.8 mph 18.4 mph N/A   Mostly Cloudy
2:35 PM 57.9 °F - 18.5 °F 22% 29.97 in 10.0 mi WNW 12.7 mph 18.4 mph N/A   Mostly Cloudy
2:55 PM 58.1 °F - 17.4 °F 20% 29.96 in 10.0 mi WNW 11.5 mph 18.4 mph N/A   Mostly Cloudy
3:15 PM 59.5 °F - 17.6 °F 20% 29.96 in 10.0 mi West 6.9 mph - N/A   Scattered Clouds
3:35 PM 59.5 °F - 18.3 °F 20% 29.95 in 10.0 mi WSW 15.0 mph 20.7 mph N/A   Scattered Clouds
3:55 PM 59.2 °F - 17.8 °F 20% 29.94 in 10.0 mi NW 9.2 mph 26.5 mph N/A   Scattered Clouds
4:15 PM 59.2 °F - 17.1 °F 19% 29.95 in 10.0 mi WNW 6.9 mph 17.3 mph N/A   Scattered Clouds
4:35 PM 58.5 °F - 17.6 °F 20% 29.95 in 10.0 mi West 13.8 mph 25.3 mph N/A   Scattered Clouds
4:55 PM 58.1 °F - 18.5 °F 21% 29.95 in 10.0 mi West 11.5 mph 19.6 mph N/A   Scattered Clouds
5:15 PM 57.4 °F - 19.2 °F 23% 29.94 in 10.0 mi NNW 9.2 mph - N/A   Scattered Clouds
5:35 PM 56.3 °F - 21.6 °F 26% 29.94 in 10.0 mi West 5.8 mph - N/A   Clear
5:55 PM 54.1 °F - 21.4 °F 28% 29.94 in 10.0 mi Calm Calm - N/A   Clear
6:15 PM 51.1 °F - 21.0 °F 31% 29.94 in 10.0 mi Calm Calm - N/A   Clear
6:35 PM 53.1 °F - 23.9 °F 32% 29.94 in 10.0 mi NE 4.6 mph - N/A   Mostly Cloudy
6:55 PM 49.3 °F - 23.2 °F 36% 29.95 in 10.0 mi Calm Calm - N/A   Mostly Cloudy
7:15 PM 48.2 °F - 23.9 °F 39% 29.95 in 10.0 mi Calm Calm - N/A   Scattered Clouds
7:35 PM 43.2 °F 41.5 °F 22.6 °F 44% 29.96 in 10.0 mi SW 3.5 mph - N/A   Clear
7:55 PM 41.2 °F - 23.4 °F 49% 29.96 in 10.0 mi Calm Calm - N/A   Clear
8:15 PM 46.8 °F - 23.2 °F 40% 29.97 in 10.0 mi ENE 3.5 mph - N/A   Clear
8:35 PM 44.8 °F - 24.8 °F 46% 29.97 in 10.0 mi Calm Calm - N/A   Clear
8:55 PM 43.0 °F - 24.8 °F 49% 29.97 in 10.0 mi Calm Calm - N/A   Clear
9:15 PM 46.9 °F - 26.1 °F 44% 29.98 in 10.0 mi Calm Calm - N/A   Clear
9:35 PM 46.6 °F - 27.0 °F 46% 29.96 in 10.0 mi Calm Calm - N/A   Clear
9:55 PM 47.5 °F - 28.0 °F 47% 29.95 in 10.0 mi South 4.6 mph - N/A   Clear
10:15 PM 49.1 °F - 28.4 °F 45% 29.97 in 10.0 mi Calm Calm - N/A   Clear
10:35 PM 45.9 °F 44.6 °F 27.7 °F 49% 29.97 in 10.0 mi SSE 3.5 mph - N/A   Clear
10:55 PM 45.7 °F 42.7 °F 27.5 °F 49% 29.97 in 10.0 mi South 5.8 mph - N/A   Clear
11:15 PM 46.4 °F 42.9 °F 27.0 °F 47% 29.96 in 10.0 mi SW 6.9 mph - N/A   Clear
11:35 PM 47.7 °F - 26.2 °F 43% 29.94 in 10.0 mi SSW 11.5 mph 17.3 mph N/A   Clear
11:55 PM 48.7 °F - 26.6 °F 42% 29.95 in 10.0 mi SSW 15.0 mph 19.6 mph N/A   Clear